Weather History for KLPR - June, 2014

Change the Weather History Date:

Monday, June 9, 2014

  Actual Average (KCLE) Record (KCLE)
Temperature  
Mean Temperature 63 °F 68 °F  
Max Temperature 75 °F 77 °F 93 °F (2008)
Min Temperature 53 °F 58 °F 41 °F (1949)
Degree Days  
Heating Degree Days 2 2  
Month to date heating degree days 23  
Since 1 June heating degree days 23  
Since 1 July heating degree days 5743  
Cooling Degree Days 0 4  
Month to date cooling degree days 34  
Year to date cooling degree days 93  
Since 1 June cooling degree days 34  
Growing Degree Days 13 (Base 50)    
Moisture  
Dew Point 54 °F    
Average Humidity 79    
Maximum Humidity 90    
Minimum Humidity 53    
Precipitation  
Precipitation 0.00 in 0.12 in - ()
Month to date precipitation 1.05  
Year to date precipitation 16.19  
Snow  
Snow 0.00 in 0.00 in - ()
Month to date snowfall 0.0  
Since 1 June snowfall 0.0  
Since 1 July snowfall 68.1  
Snow Depth -    
Sea Level Pressure  
Sea Level Pressure 29.97 in    
Wind  
Wind Speed 3 mph (North)    
Max Wind Speed 9 mph    
Max Gust Speed -    
Visibility 5 miles    
Events Fog    
T = Trace of Precipitation, MM = Missing Value Source: NWS Daily Summary

Daily Weather History Graph

Daily Weather History Graph

Search for Another Location

Airport or City:

Trip Planner

Search our weather history database for the weather conditions in past years. The results will help you decide how hot, cold, wet, or windy it might be!

Date:

Astronomy

Jun. 09, 2014 Rise Set
Actual Time 5:55 AM EDT 9:00 PM EDT
Civil Twilight 5:21 AM EDT 9:34 PM EDT
Nautical Twilight 4:38 AM EDT 10:17 PM EDT
Astronomical Twilight 3:47 AM EDT 11:08 PM EDT
Moon 5:18 PM EDT (6/9) 3:24 AM EDT (6/9)
Length of Visible Light 16h 12m
Length of Day
15h 05m
Waxing Gibbous, 85% of the Moon is Illuminated
Jun 9
Waxing Gibbous
Jun 13
Full
Jun 19
Last Quarter
Jun 27
New
Jul 5
First Quarter

Hourly Weather History & Observations

Time (EDT) Temp. Dew Point Humidity Pressure Visibility Wind Dir Wind Speed Gust Speed Precip Events Conditions
12:53 AM 57.9 °F 54.0 °F 87% 29.98 in 3.0 mi NNW 5.8 mph - N/A   Clear
1:53 AM 57.9 °F 53.1 °F 84% 29.97 in 4.0 mi Calm Calm - N/A   Haze
2:53 AM 57.0 °F 53.1 °F 87% 29.99 in 7.0 mi Calm Calm - N/A   Clear
3:53 AM 55.9 °F 52.0 °F 87% 29.99 in 4.0 mi Calm Calm - N/A   Clear
4:02 AM 55.0 °F 51.1 °F 86% 29.99 in 1.5 mi WSW 4.6 mph - N/A   Clear
4:11 AM 55.0 °F 51.1 °F 86% 29.99 in 0.5 mi West 3.5 mph - N/A Fog Fog
4:24 AM 54.0 °F 51.1 °F 90% 29.99 in 1.0 mi Calm Calm - N/A   Clear
4:31 AM 55.0 °F 51.1 °F 86% 29.99 in 0.8 mi Calm Calm - N/A   Clear
4:53 AM 55.0 °F 51.1 °F 86% 29.98 in 0.5 mi Calm Calm - N/A Fog Fog
5:10 AM 53.1 °F 50.0 °F 89% 29.98 in 0.2 mi Calm Calm - N/A Fog Fog
5:23 AM 53.1 °F 50.0 °F 89% 29.97 in 0.5 mi Calm Calm - N/A Fog Fog
5:46 AM 53.1 °F 50.0 °F 89% 29.97 in 1.0 mi WNW 3.5 mph - N/A   Clear
5:53 AM 53.1 °F 50.0 °F 89% 29.96 in 1.0 mi NW 5.8 mph - N/A   Clear
6:13 AM 55.0 °F 51.1 °F 86% 29.97 in 2.0 mi Variable 4.6 mph - N/A   Clear
6:36 AM 57.0 °F 53.1 °F 87% 29.99 in 4.0 mi NNW 4.6 mph - N/A   Clear
6:53 AM 57.0 °F 54.0 °F 89% 29.98 in 4.0 mi Calm Calm - N/A   Clear
7:53 AM 62.1 °F 57.0 °F 84% 29.99 in 6.0 mi NNE 3.5 mph - N/A   Haze
8:53 AM 66.9 °F 57.9 °F 73% 29.99 in 10.0 mi NE 6.9 mph - N/A   Clear
9:53 AM 70.0 °F 57.9 °F 65% 30.00 in 10.0 mi NNE 8.1 mph - N/A   Partly Cloudy
11:53 AM 70.0 °F 57.9 °F 65% 29.99 in 10.0 mi North 6.9 mph - N/A   Clear
12:53 PM 73.0 °F 59.0 °F 61% 30.00 in 9.0 mi Variable 6.9 mph - N/A   Clear
1:53 PM 69.1 °F 57.9 °F 68% 29.99 in 10.0 mi North 6.9 mph - N/A   Clear
4:53 PM 73.0 °F 57.0 °F 57% 29.93 in 10.0 mi ENE 9.2 mph - N/A   Clear
5:53 PM 73.9 °F 55.9 °F 53% 29.95 in 10.0 mi North 5.8 mph - N/A   Clear
7:53 PM 73.0 °F 55.9 °F 55% 29.94 in 10.0 mi NNE 8.1 mph - N/A   Clear
8:53 PM 69.1 °F 57.0 °F 65% 29.94 in 10.0 mi NE 4.6 mph - N/A   Clear
9:53 PM 66.0 °F 57.0 °F 73% 29.94 in 10.0 mi NE 4.6 mph - N/A   Clear
10:53 PM 63.0 °F 57.0 °F 81% 29.95 in 8.0 mi North 4.6 mph - N/A   Clear
11:53 PM 62.1 °F 57.0 °F 84% 29.96 in 5.0 mi NE 3.5 mph - N/A   Haze